Kuala Lumpur International Airport Kuala Lumpur MY
ICAO: WMKK
IATA: KUL
Category: Large
Scheduled Services: Yes

Elevation: 69 ft
TransAlt. 11000 ft.

Airport Communications:
LUMPUR APP:119.45
LUMPUR ATIS:126.45
LUMPUR CLNC DEL:126
LUMPUR GND:121.65
LUMPUR GND:122.275
LUMPUR TWR 14R/32L:118.5
LUMPUR TWR 14L/32R:118.8

WMKK Zoom In..

If you have problems with the map follow the link
https://www.worldairports.se/pages/airport.php?
ICAO=WMKK

Runways:

(A) RW 14L length 13186 ft width 197 ft
ILS 108.50 / hdg 146

(B) RW 14R length 13123 ft width 197 ft
ILS 110.70 / hdg 146

(C) RW 32L length 13123 ft width 197 ft
ILS 111.90 / hdg 326

(D) RW 32R length 13186 ft width 197 ft
ILS 109.10 / hdg 326

Location; WMKK
Day. 05 / Time. 15.00 Zulu
* QNH: 1012
* Temperature: 28° c. 82.4°f.
* Wind from: 050° Speed 07 kn.
Dewpoint: 23° c.
Visibility: 10 km or more.
Clouds: Few 3000 ft.
No significant changes expected in the near future.

WMKK 051500Z 05007KT 020V080 9999 FEW030 28/23 Q1012 NOSIG


Wind From 050°
Speed 07 kn.

 
 
jpsmedia worldairports.se 2019   terms of use